Location: Jastrzębia Góra
(54.8312°N, 18.3037°E)
Time: 23:38:47
(UTC+01:00)

ISS - Pass Details

Date: 01 February 2019
Orbit: 403 x 411 km, 51.6° (Epoch: 20 February)

Event Time Altitude Azimuth Distance (km) Brightness Sun altitude
Rises 17:19:28 0° 252° (WSW) 2,332 2.6 -8.2°
Reaches altitude 10° 17:21:35 10° 246° (WSW) 1,474 0.7 -8.4°
Maximum altitude 17:24:46 45° 173° (S) 567 -3.0 -8.9°
Enters shadow 17:27:48 11° 99° (E) 1,420 -1.6 -9.3°
